Location: Newark
(43.6583°N, 1.6617°E)
Time: 19:14:49
(UTC+00:00)

Tiros 1 - Pass Details

Date: 26 August 2019
Orbit: 630 x 664 km, 48.4° (Epoch: 17 October)

Event Time Altitude Azimuth Distance (km) Brightness Sun altitude
Rises 00:58:58 0° 275° (W) 2,916 - -33.9°
Reaches altitude 10° 01:01:22 10° 281° (WNW) 2,011 - -33.7°
Maximum altitude 01:05:50 47° 356° (N) 845 - -33.5°
Exits shadow 01:08:46 20° 62° (ENE) 1,471 9.4 -33.3°
Drops below altitude 10° 01:10:20 10° 70° (ENE) 2,027 10.1 -33.2°
Sets 01:12:45 0° 77° (ENE) 2,941 11.0 -33.0°
